TimePST,TemperatureF,Dew PointF,Humidity,Sea Level PressureIn,VisibilityMPH,Wind Direction,Wind SpeedMPH,Gust SpeedMPH,PrecipitationIn,Events,Conditions,WindDirDegrees,DateUTC
12:00 AM,-36.6,-44.0,67,30.47,-9999.0,Calm,Calm,-,N/A,,Unknown,0,2013-12-19 08:00:00
1:00 AM,-40.0,-47.9,64,30.45,-9999.0,Calm,Calm,-,N/A,,Unknown,0,2013-12-19 09:00:00
2:00 AM,-36.2,-43.6,67,30.41,-9999.0,East,2.3,-,N/A,,Unknown,80,2013-12-19 10:00:00
3:00 AM,-35.0,-42.2,68,30.37,-9999.0,Calm,Calm,-,N/A,,Unknown,0,2013-12-19 11:00:00
4:00 AM,-32,-39,49,30.33,,NW,1.2,,,,,310,2013-12-19 12:00:00
4:00 AM,-32.4,-39.5,69,30.33,-9999.0,NW,1.2,-,N/A,,Unknown,320,2013-12-19 12:00:00
5:00 AM,-31.2,-38.2,69,30.32,-9999.0,NNW,1.2,-,N/A,,Unknown,330,2013-12-19 13:00:00
6:00 AM,-29.6,-36.2,70,30.31,-9999.0,NNW,2.3,-,N/A,,Unknown,330,2013-12-19 14:00:00
7:00 AM,-27.9,-34.4,71,30.26,-9999.0,Calm,Calm,-,N/A,,Unknown,0,2013-12-19 15:00:00
8:00 AM,-26.0,-32.4,71,30.24,-9999.0,Calm,Calm,-,N/A,,Unknown,0,2013-12-19 16:00:00
9:00 AM,-24.9,-31.2,72,30.22,-9999.0,Calm,Calm,-,N/A,,Unknown,0,2013-12-19 17:00:00
10:00 AM,-24,-30,59,30.20,,Calm,Calm,,,,,,2013-12-19 18:00:00
10:00 AM,-23.8,-29.9,73,30.20,-9999.0,Calm,Calm,-,0.02,,Unknown,0,2013-12-19 18:00:00
11:00 AM,-22.4,-28.5,73,30.17,-9999.0,NW,4.6,-,0.01,,Unknown,310,2013-12-19 19:00:00
12:00 PM,-21.3,-27.2,74,30.15,-9999.0,WNW,3.5,-,N/A,,Unknown,300,2013-12-19 20:00:00
1:00 PM,-20.6,-26.3,75,30.12,-9999.0,WNW,3.5,-,N/A,,Unknown,300,2013-12-19 21:00:00
2:00 PM,-20.6,-26.3,75,30.10,-9999.0,WNW,4.6,-,N/A,,Unknown,300,2013-12-19 22:00:00
3:00 PM,-20.2,-26.0,75,30.08,-9999.0,WNW,2.3,-,0.01,,Unknown,290,2013-12-19 23:00:00
4:00 PM,-19,-25,59,30.07,,WNW,3.5,,,,,300,2013-12-20 00:00:00
4:00 PM,-19.5,-25.2,75,30.07,-9999.0,NW,3.5,-,0.02,,Unknown,310,2013-12-20 00:00:00
5:00 PM,-18.2,-23.8,76,30.05,-9999.0,WNW,4.6,-,N/A,,Unknown,300,2013-12-20 01:00:00
6:00 PM,-17.3,-22.9,76,30.06,-9999.0,NNW,3.5,-,N/A,,Unknown,330,2013-12-20 02:00:00
7:00 PM,-16.8,-22.2,76,30.06,-9999.0,NW,4.6,-,0.01,,Unknown,320,2013-12-20 03:00:00
8:00 PM,-17.9,-23.3,76,30.06,-9999.0,WSW,1.2,-,N/A,,Unknown,250,2013-12-20 04:00:00
9:00 PM,-17.1,-22.4,77,30.06,-9999.0,East,2.3,-,N/A,,Unknown,100,2013-12-20 05:00:00
10:00 PM,-16,-22,63,30.05,,Calm,Calm,,,,,,2013-12-20 06:00:00
10:00 PM,-16.2,-21.6,77,30.05,-9999.0,Calm,Calm,-,N/A,,Unknown,0,2013-12-20 06:00:00
11:00 PM,-15.2,-20.4,77,30.06,-9999.0,NNW,2.3,-,N/A,,Unknown,340,2013-12-20 07:00:00